Location: *
(31.2983°S, 151.4094°E)
Time: 18:36:15
(UTC+00:00)

GEOS 3 Rocket - Pass Details

Date: 25 August 2019
Orbit: 792 x 828 km, 115.0° (Epoch: 21 September)

Event Time Altitude Azimuth Distance (km) Brightness Sun altitude
Rises 18:17:16 0° 48° (NE) 3,350 7.4 -26.6°
Reaches altitude 10° 18:19:37 10° 53° (NE) 2,426 6.7 -26.1°
Maximum altitude 18:24:42 50° 126° (SE) 1,054 4.4 -25.1°
Enters shadow 18:29:17 13° 198° (SSW) 2,237 5.7 -24.1°
